CZ-3B R/B, 45345

Orbit data source: Space-Track

CZ-3B R/B, 45345 is space debris in HEO originally from a launch on Mon, 09 Mar 2020 UTC launched from the Xichang Space Center, China (XSC). Debris objects in space refer to the collection of defunct objects orbiting the Earth. Examples of debris include non-operational satellites, rocket bodies, and fragments generated from explosions, collisions, or faulty payload assembly.

Loading next visibility...
CZ-3B R/B details
Identifier
45345, 2020-017B
Orbit
HEO
Last TLE update23 hours ago
Origin
Flag of CNCASC (CN / PRC)
ManufacturerCALT
MissionSpacecraft
Bus & MotorCZ-3A STAGE 3, Unknown motor
Mass~2,800 kg wet, ~2,800 kg dry
Launch date (UTC)
2020-03-09 (5 years ago)
Launch vehicleUnknown
Launch site
Xichang Space Center, China (XSC)
Object type
Payload
Rocket body
Debris
Shape & HBRCyl + 1 Nozzle, 12.38 m
Radar Cross Section32.704 m², Large (>1 m²)

Expand to show TLE details & history

TLE from 23 hours ago
0 CZ-3B R/B
1 45345U 20017B   24361.01832952  .00302585 -34815-7  12529-2 0  9990
2 45345  28.0625 328.6748 5131622 169.8539 206.8856  5.58290184 59455
Epoch: 2024-12-26T00:26Z
Definitive object data (Epoch: 2024-12-26T00:26:23.67Z)
Latitude-0.00001°
Longitude-132.93283°
Altitude13,595.096 km
Speed3.197 km/s
True Right ascension21h 54m 40s
True Declination0° 00' 00"
Sunlit
Object was in daylight at TLE epoch
Visualization TLE readout
Latitude27.4373°
Longitude-29.80717°
Altitude1,977.47 km
Speed8.108 km/s
Apparent Right ascension07h 02m 22s
Apparent Declination-1° 33' 03"
Sunlit
Object is in full shadow
Visualization observer readout
Local Sidereal Time22:52:00
Azimuth68.916° E
Elevation-25.488°
Doppler factor1
Orbital elements
Apogee altitude13,937.313 km
Perigee altitude158.062 km
Semi-major axis13,425.824 km
Eccentricity0.5131622
Inclination28.0625°
RAAN328.6748°
Arg. of periapsis169.8539°
True anomaly190.1896°
Mean anomaly206.8856°
Eccentric anomaly197.86553°
Mean motion1.39518 °/min
BSTAR0.0012529
Orbital period258.03 mins
Loading maneuver chart data...
Loading historical data...
Loading historical data...
Loading historical data...
Loading historical data...
Loading historical data...
Loading historical data...
Loading historical data...
Other satellites on launch #17 in the year 2020 (2020-03-09 UTC)

CZ-3B R/B Visibility forecast

Observer location: undefined°, undefined

Span
Click to sort rows by Start time (UTC) header in descending order
Start Az.
Max El. time (UTC)
Max El. Az.
Max El.
End time (UTC)
End Az.
89 mins2024-12-27 02:18:41.310Z246.69° WSW2024-12-27 03:36:41.310Z183.279° SSW40.462°2024-12-27 03:47:41.310Z109.923° ESE
90 mins2024-12-27 18:31:41.310Z139.334° SSE2024-12-27 19:24:41.310Z118.79° SE14.192°2024-12-27 20:01:41.310Z100.814° ESE
46 mins2024-12-27 22:42:41.310Z215.476° SW2024-12-27 23:28:41.310Z208.796° SW25.933°2024-12-27 23:28:41.310Z208.796° SW
|